Home   Weather   Monaco   Past weeks

Flag for Monaco Past Weather in Monaco, Monaco — Yesterday and Last 2 Weeks

Now
63 °F

Scattered clouds.


Feels Like: 63 °F
Forecast: 53 / 64 °F
Wind: 15 mph from East

Location: Nice Airport

Current Time: Apr 23, 2017 at 5:59:30 pm

Latest Report: Apr 23, 2017 at 5:00 pm


Visibility: N/A

Pressure: 30.04 "Hg

Humidity: 73%

Dew Point: 54 °F

Location of MonacoLocation

Past Weather in Monaco — Graph

°F

Monaco Temperature Yesterday

Maximum temperature yesterday: 64 °F (at 3:30 pm)
Minimum temperature yesterday: 50 °F (at 3:00 am)
Average temperature yesterday: 57 °F

High & Low Weather Summary for the Past Weeks

 TemperatureHumidityPressure
High68 °F (Apr 12, 4:00 pm)94% (Apr 8, 11:00 pm)30.39 "Hg (Apr 8, 11:00 pm)
Low45 °F (Apr 20, 2:30 am)17% (Apr 20, 11:00 am)29.74 "Hg (Apr 18, 2:00 pm)
Average59 °F69%30.05 "Hg
* Reported Apr 8 5:00 pm — Apr 23 5:00 pm, Monaco, Weather by CustomWeather, © 2017

Note: Actual official high and low records may vary slightly from our data, if they occured in-between our weather recording intervals... More about our weather records

Advertising

Monaco Weather History for the Previous 24 Hours

Scroll right to see more
 ConditionsComfort  
Time TempWeatherWind HumidityBarometerVisibility
5:00 pm
Sun, Apr 23
63 °FScattered clouds.15 mph73%30.04 "HgN/A
4:30 pm63 °FScattered clouds.14 mph73%30.04 "HgN/A
4:00 pm63 °FScattered clouds.16 mph73%30.04 "HgN/A
3:00 pm64 °FScattered clouds.16 mph68%30.04 "HgN/A
2:00 pm64 °FPassing clouds.14 mph68%30.04 "HgN/A
1:30 pm64 °FPassing clouds.16 mph68%30.04 "HgN/A
1:00 pm64 °FScattered clouds.15 mph68%30.04 "HgN/A
12:30 pm63 °FScattered clouds.18 mph73%30.04 "HgN/A
12:00 pm63 °FScattered clouds.17 mph68%30.04 "HgN/A
11:30 am63 °FScattered clouds.18 mph68%30.04 "HgN/A
11:00 am63 °FScattered clouds.20 mph68%30.04 "HgN/A
10:30 am63 °FScattered clouds.20 mph68%30.01 "HgN/A
10:00 am61 °FScattered clouds.16 mph72%30.01 "HgN/A
9:30 am61 °FScattered clouds.16 mph68%30.01 "HgN/A
9:00 am59 °FScattered clouds.5 mph63%30.01 "HgN/A
8:30 am55 °FScattered clouds.7 mph72%30.01 "HgN/A
8:04 am54 °FScattered clouds.9 mph72%30.01 "HgN/A
7:30 am52 °FScattered clouds.8 mph77%30.01 "HgN/A
7:00 am52 °FScattered clouds.6 mph77%29.98 "HgN/A
6:30 am52 °FPassing clouds.8 mph77%29.98 "HgN/A
6:00 am52 °FPassing clouds.8 mph82%29.98 "HgN/A
5:30 am52 °FPassing clouds.2 mph82%29.98 "HgN/A
4:30 am57 °FPassing clouds.12 mph72%29.98 "HgN/A
4:00 am57 °FPassing clouds.12 mph77%29.98 "HgN/A
3:30 am57 °FPassing clouds.7 mph72%29.98 "HgN/A
3:00 am54 °FPassing clouds.5 mph82%30.01 "HgN/A
2:30 am54 °FPassing clouds.6 mph82%30.01 "HgN/A
2:00 am55 °FPassing clouds.2 mph77%30.01 "HgN/A
1:30 am55 °FPassing clouds.2 mph77%30.01 "HgN/A
1:00 am55 °FPassing clouds.5 mph82%30.01 "HgN/A
12:30 am55 °FClear.3 mph77%30.01 "Hg10 mi
12:00 am55 °FClear.2 mph82%30.01 "Hg10 mi
11:30 pm
Sat, Apr 22
57 °FClear.5 mph82%30.01 "Hg10 mi
11:00 pm57 °FClear.2 mph77%30.04 "Hg10 mi
10:30 pm59 °FClear.6 mph72%30.04 "Hg10 mi
10:00 pm59 °FPassing clouds.7 mph72%30.04 "HgN/A
9:30 pm61 °FPassing clouds.9 mph72%30.04 "HgN/A
8:30 pm61 °FPassing clouds.18 mph72%30.01 "HgN/A
8:00 pm61 °FScattered clouds.20 mph72%30.04 "HgN/A
7:30 pm63 °FScattered clouds.18 mph68%30.04 "HgN/A
7:00 pm63 °FPassing clouds.17 mph68%30.04 "HgN/A
6:30 pm64 °FPassing clouds.17 mph64%30.04 "HgN/A
6:00 pm63 °FPassing clouds.20 mph73%30.04 "HgN/A
5:30 pm64 °FPassing clouds.21 mph64%30.07 "HgN/A
5:00 pm64 °FPassing clouds.18 mph68%30.07 "HgN/A
Weather by CustomWeather, © 2017

See weather overviewHow to use our weather pages